(24) Themis
ephemeris date magn radius delta ra dec elong phase
Opposition30 May 202611.53.188 AU2.174 AU16h29m-22°24'179.3°0.2°
Today13 Jun 202611.93.202 AU2.211 AU16h18m-22°01'164.9°4.7°
(24) Themis - 2026-06-13
astro.vanbuitenen.nl


 
-1 year
-1 month
-1 day
Now
+1 day
+1 month
+1 year

The interactive orbit chart above shows the body's path through the solar system and its position at the given date. Green and blue lines are shown perpendicular to the ecliptic plane: Green if the path is above the ecliptic plane, blue if it is below. (Left-click and drag to rotate the view; Right-click and drag to move the view; Use scroll wheel to zoom in our out.)

The orbital elements of Themis are:

            e (Eccentricity)                : 0.1153800
            a (Semimajor axis)              : 3.1439977
            i (Inclination)                 : 0.73662
            Ω (Longitude of ascending node) : 36.39073
            ω (Argument of perihelion)      : 109.22179
            M (Mean anomaly)                : 92.01696
            Epoch                           : 2026 Jun 09

            L (Longitude of perihelion)     : -34.38601
            B (Latitude of perihelion)      : 0.69555
            P (Orbital period in years)     : 5.57            
        

The light curve chart below shows the estimated development of the minor planet's magnitude.


The all-sky chart below shows the path of the minor planet over the same period as the light curve. The current position is marked yellow.





The following chart shows the path of the minor planet in the next few days. The field of view is optimized for (~10x50) binoculars and finderscopes.




Ephemerides:
Date       Time       RA (2000)    DEC (2000)    delta   radius  elong  phase   PA    magn
2026-06-13 00:00 UT   16 18 36.9   -22 01 05     2.211    3.202  164.9    4.7    98   11.9 
2026-06-13 06:35 UT   16 18 24.5   -22 00 36     2.212    3.203  164.6    4.8    98   11.9 
2026-06-14 00:00 UT   16 17 51.8   -21 59 21     2.215    3.203  163.8    5.1    98   11.9 
2026-06-15 00:00 UT   16 17 07.3   -21 57 38     2.220    3.204  162.7    5.4    98   11.9 
2026-06-16 00:00 UT   16 16 23.6   -21 55 56     2.226    3.206  161.6    5.8    98   11.9 
2026-06-17 00:00 UT   16 15 40.8   -21 54 15     2.231    3.207  160.4    6.1    98   12.0 
2026-06-18 00:00 UT   16 14 58.8   -21 52 35     2.237    3.208  159.3    6.4    98   12.0 
2026-06-19 00:00 UT   16 14 17.7   -21 50 56     2.243    3.209  158.2    6.8    99   12.0 
2026-06-20 00:00 UT   16 13 37.5   -21 49 19     2.249    3.210  157.1    7.1    99   12.0 
2026-06-21 00:00 UT   16 12 58.3   -21 47 43     2.256    3.211  156.0    7.4    99   12.1 
2026-06-22 00:00 UT   16 12 20.0   -21 46 09     2.263    3.212  154.9    7.7    99   12.1 
2026-06-23 00:00 UT   16 11 42.8   -21 44 36     2.270    3.213  153.8    8.0    99   12.1 
2026-06-24 00:00 UT   16 11 06.6   -21 43 06     2.277    3.214  152.7    8.3    99   12.1 
2026-06-25 00:00 UT   16 10 31.5   -21 41 37     2.285    3.215  151.6    8.7    99   12.1 
2026-06-26 00:00 UT   16 09 57.4   -21 40 10     2.292    3.216  150.5    9.0    99   12.2 
2026-06-27 00:00 UT   16 09 24.5   -21 38 46     2.300    3.217  149.4    9.2   100   12.2 
2026-06-28 00:00 UT   16 08 52.7   -21 37 24     2.309    3.218  148.3    9.5   100   12.2 
2026-06-29 00:00 UT   16 08 22.1   -21 36 04     2.317    3.220  147.3    9.8   100   12.2 
2026-06-30 00:00 UT   16 07 52.6   -21 34 47     2.326    3.221  146.2   10.1   100   12.2 
2026-07-01 00:00 UT   16 07 24.4   -21 33 32     2.335    3.222  145.1   10.4   100   12.3 
2026-07-02 00:00 UT   16 06 57.3   -21 32 20     2.344    3.223  144.1   10.7   100   12.3 
2026-07-03 00:00 UT   16 06 31.4   -21 31 11     2.353    3.224  143.0   10.9   100   12.3 
2026-07-04 00:00 UT   16 06 06.8   -21 30 05     2.363    3.225  142.0   11.2   100   12.3 
2026-07-05 00:00 UT   16 05 43.4   -21 29 01     2.372    3.226  140.9   11.5   100   12.3 
2026-07-06 00:00 UT   16 05 21.3   -21 28 00     2.382    3.227  139.9   11.7   100   12.4 
2026-07-07 00:00 UT   16 05 00.5   -21 27 03     2.392    3.228  138.8   12.0   100   12.4 
2026-07-08 00:00 UT   16 04 40.9   -21 26 09     2.403    3.229  137.8   12.2   100   12.4 
2026-07-09 00:00 UT   16 04 22.6   -21 25 18     2.413    3.230  136.8   12.4   100   12.4 
2026-07-10 00:00 UT   16 04 05.6   -21 24 30     2.424    3.231  135.8   12.7   100   12.4 
2026-07-11 00:00 UT   16 03 49.9   -21 23 45     2.435    3.232  134.8   12.9   101   12.5 
2026-07-12 00:00 UT   16 03 35.5   -21 23 04     2.446    3.233  133.7   13.1   101   12.5 
2026-07-13 00:00 UT   16 03 22.5   -21 22 26     2.457    3.234  132.7   13.3   101   12.5 


    Terminology:
            
    delta:  distance between minor planet and earth in AU
    radius: distance between minor planet and sun in AU
    magn:   magnitude (brightness) estimate    
    ra:     right ascension in hours (24h = 360deg)
    dec:    declination in degrees
    elong:  elongation in degrees (angle sun-earth-minor planet)    
    phase:  phase angle in degrees (angle sun-minor planet-earth)        
    AU:     Astronomical Unit (mean distance between earth and sun: 149597870.7 km
    

Orbital elements provided by the MPC (Minor Planet Center).
Calculations by a modified version of AAPlus, a C# implementation of the AA+ project by PJ Naughter from the algorithms presented in the book "Astronomical Algorithms" by Jean Meeus.
NGC2000 dso catalog and star labels from VizieR as provided by the Strasbourg astronomical Data Center.
Tycho2 catalog from the ESO archive.